Location: Unspecified
(0.0000°N, 0.0000°E)
Time: 15:35:49
(UTC+00:00)

NOSS 3-4 (A) - Pass Details

Date: 07 August 2024
Orbit: 801 x 1411 km, 63.4° (Epoch: 05 September)

Event Time Altitude Azimuth Distance (km) Brightness Sun altitude
Rises 19:27:03 0° 184° (S) 3,560 6.3 -19.5°
Reaches altitude 10° 19:30:02 10° 172° (S) 2,535 5.4 -20.2°
Enters shadow 19:30:52 13° 167° (SSE) 2,277 5.2 -20.4°
